Flag for Italy Weather past 2 weeks in Venice, Italy

Now
43 °F

Clear.


Feels Like: 40 °F
Forecast: 36 / 46 °F
Wind: 5 mph from North

Location: Venice / Tessera

Current Time: Jan 26, 2015 at 12:27:59 AM

Latest Report: Jan 25, 2015 at 11:50 PM


Visibility: 10 mi

Pressure: 30.18 "Hg

Humidity: 71%

Dew point: 34 °F

Location of VeniceLocation

Historic Weather in Venice — Graph

°F

Venice temperature yesterday

Maximum temperature yesterday: 50 °F (at 11:20 AM)
Minimum temperature yesterday: 39 °F (at 4:20 AM)
Average temperature yesterday: 45 °F

Past Weeks' High & Low Weather Summary

 TemperatureHumidityPressure
High54 °F (Jan 17, 7:20 AM)100% (Jan 18, 2:50 AM)30.39 "Hg (Jan 18, 2:50 AM)
Low32 °F (Jan 11, 2:20 AM)29% (Jan 12, 1:50 AM)29.71 "Hg (Jan 23, 4:20 AM)
Average43 °F79%30.00 "Hg
* Reported Jan 10 10:20 PM — Jan 25 10:50 PM, Venice, Weather by CustomWeather, © 2014

Note: Actual official high and low records may vary slightly from our data, if they occured in-between our weather recording intervals... More about our weather records

Advertising

Venice weather history for previous 24 hours

 ConditionsComfort  
Time TempWeatherWind HumidityBarometerVisibility
10:50 PM
Jan 25
43 °FClear.2 mph76%30.18 "Hg10 mi
10:20 PM43 °FClear.5 mph71%30.15 "Hg10 mi
9:50 PM45 °FPassing clouds.3 mph66%30.15 "HgN/A
9:20 PM46 °FPassing clouds.3 mph66%30.15 "HgN/A
8:50 PM46 °FPassing clouds.1 mph62%30.12 "HgN/A
8:20 PM46 °FClear.1 mph66%30.12 "Hg10 mi
7:50 PM46 °FClear.2 mph71%30.12 "Hg10 mi
7:20 PM46 °FClear.3 mph66%30.09 "Hg10 mi
6:50 PM46 °FClear.3 mph66%30.09 "Hg10 mi
6:20 PM46 °FClear.2 mph66%30.09 "Hg10 mi
5:50 PM46 °FClear.3 mph62%30.07 "Hg10 mi
5:20 PM46 °FClear.3 mph66%30.07 "Hg10 mi
4:50 PM46 °FSunny.3 mph62%30.07 "Hg10 mi
4:20 PM46 °FSunny.5 mph62%30.04 "Hg10 mi
3:50 PM48 °FSunny.5 mph58%30.04 "Hg10 mi
3:20 PM48 °FSunny.6 mph58%30.04 "Hg10 mi
2:50 PM48 °FSunny.5 mph58%30.04 "Hg10 mi
2:20 PM48 °FSunny.5 mph54%30.04 "Hg10 mi
1:50 PM48 °FSunny.5 mph58%30.04 "Hg10 mi
1:20 PM48 °FSunny.5 mph54%30.04 "Hg10 mi
12:50 PM50 °FSunny.6 mph54%30.04 "Hg10 mi
12:20 PM50 °FSunny.6 mph54%30.04 "Hg10 mi
11:50 AM50 °FSunny.7 mph58%30.04 "Hg10 mi
11:20 AM50 °FSunny.3 mph67%30.04 "Hg10 mi
10:50 AM46 °FSunny.2 mph76%30.04 "Hg10 mi
10:20 AM45 °FSunny.1 mph76%30.01 "Hg10 mi
9:50 AM45 °FSunny.2 mph76%30.01 "Hg10 mi
9:20 AM43 °FSunny.3 mph81%30.01 "Hg10 mi
8:50 AM41 °FSunny.2 mph81%29.98 "Hg10 mi
8:20 AM43 °FSunny.3 mph81%29.98 "Hg10 mi
7:50 AM41 °FSunny.5 mph81%29.98 "Hg10 mi
7:20 AM41 °FClear.3 mph87%29.95 "Hg10 mi
6:50 AM41 °FClear.5 mph87%29.95 "Hg10 mi
6:20 AM39 °FClear.5 mph93%29.92 "Hg10 mi
5:50 AM39 °FClear.5 mph93%29.92 "Hg10 mi
5:20 AM39 °FClear.3 mph93%29.92 "Hg10 mi
4:50 AM41 °FClear.3 mph87%29.92 "Hg10 mi
4:20 AM39 °FClear.1 mph93%29.89 "Hg10 mi
3:50 AM41 °FClear.2 mph87%29.89 "Hg10 mi
3:20 AM41 °FClear.2 mph87%29.89 "Hg10 mi
2:50 AM41 °FClear.1 mph87%29.89 "Hg10 mi
2:20 AM41 °FClear.No wind87%29.89 "Hg10 mi
1:50 AM41 °FClear.1 mph87%29.89 "Hg10 mi
1:20 AM43 °FClear.5 mph81%29.89 "Hg10 mi
12:50 AM43 °FClear.2 mph81%29.86 "Hg10 mi
12:20 AM45 °FClear.2 mph81%29.86 "Hg10 mi
Weather by CustomWeather, © 2014

See weather overviewHow to use our weather pages